Time,TemperatureF,DewpointF,PressureIn,WindDirection,WindDirectionDegrees,WindSpeedMPH,WindSpeedGustMPH,Humidity,HourlyPrecipIn,Conditions,Clouds,dailyrainin,SoftwareType,DateUTC
2013-02-06 00:01:00,30.0,25.0,29.92,SE,146,2.0,-999.0,82,-99.99,,,-99.99,,2013-02-06 07:01:00,
2013-02-06 00:11:00,30.0,25.0,29.92,SE,146,2.0,-999.0,82,-99.99,,,-99.99,,2013-02-06 07:11:00,
2013-02-06 00:21:00,29.0,24.0,29.93,SE,146,1.0,-999.0,82,-99.99,,,-99.99,,2013-02-06 07:21:00,
2013-02-06 00:32:00,29.0,25.0,29.93,SE,145,3.0,-999.0,84,-99.99,,,-99.99,,2013-02-06 07:32:00,
2013-02-06 00:41:00,29.0,25.0,29.93,SE,145,3.0,-999.0,84,-99.99,,,-99.99,,2013-02-06 07:41:00,
2013-02-06 00:52:00,29.0,25.0,29.92,SE,146,2.0,-999.0,84,-99.99,,,-99.99,,2013-02-06 07:52:00,
2013-02-06 01:01:00,30.0,25.0,29.91,SE,145,3.0,-999.0,83,-99.99,,,-99.99,,2013-02-06 08:01:00,
2013-02-06 01:11:00,30.0,25.0,29.91,SE,145,3.0,-999.0,83,-99.99,,,-99.99,,2013-02-06 08:11:00,
2013-02-06 01:21:00,29.0,25.0,29.91,SE,145,2.0,-999.0,83,-99.99,,,-99.99,,2013-02-06 08:21:00,
2013-02-06 01:31:00,27.0,23.0,29.91,SE,146,2.0,-999.0,83,-99.99,,,-99.99,,2013-02-06 08:31:00,
2013-02-06 01:41:00,27.0,23.0,29.91,SE,146,2.0,-999.0,83,-99.99,,,-99.99,,2013-02-06 08:41:00,
2013-02-06 01:53:00,27.0,23.0,29.91,SE,145,1.0,-999.0,86,-99.99,,,-99.99,,2013-02-06 08:53:00,
2013-02-06 02:01:00,27.0,23.0,29.89,SE,146,3.0,-999.0,84,-99.99,,,-99.99,,2013-02-06 09:01:00,
2013-02-06 02:11:00,27.0,23.0,29.89,SE,146,3.0,-999.0,84,-99.99,,,-99.99,,2013-02-06 09:11:00,
2013-02-06 02:21:00,26.0,22.0,29.89,SE,145,4.0,-999.0,86,-99.99,,,-99.99,,2013-02-06 09:21:00,
2013-02-06 02:31:00,25.0,21.0,29.91,SE,145,1.0,-999.0,86,-99.99,,,-99.99,,2013-02-06 09:31:00,
2013-02-06 02:41:00,25.0,21.0,29.91,SE,145,1.0,-999.0,86,-99.99,,,-99.99,,2013-02-06 09:41:00,
2013-02-06 02:52:00,26.0,23.0,29.90,SE,146,0.0,-999.0,88,-99.99,,,-99.99,,2013-02-06 09:52:00,
2013-02-06 03:01:00,25.0,22.0,29.90,SE,145,2.0,-999.0,88,-99.99,,,-99.99,,2013-02-06 10:01:00,
2013-02-06 03:11:00,25.0,22.0,29.90,SE,145,2.0,-999.0,88,-99.99,,,-99.99,,2013-02-06 10:11:00,
2013-02-06 03:21:00,25.0,22.0,29.89,SE,145,2.0,-999.0,88,-99.99,,,-99.99,,2013-02-06 10:21:00,
2013-02-06 03:31:00,25.0,22.0,29.89,SE,145,2.0,-999.0,88,-99.99,,,-99.99,,2013-02-06 10:31:00,
2013-02-06 03:41:00,25.0,22.0,29.89,SE,145,2.0,-999.0,88,-99.99,,,-99.99,,2013-02-06 10:41:00,
2013-02-06 03:52:00,26.0,23.0,29.86,SE,145,2.0,-999.0,88,-99.99,,,-99.99,,2013-02-06 10:52:00,
2013-02-06 04:01:00,25.0,22.0,29.87,SE,145,2.0,-999.0,88,-99.99,,,-99.99,,2013-02-06 11:01:00,
2013-02-06 04:11:00,25.0,22.0,29.87,SE,145,2.0,-999.0,88,-99.99,,,-99.99,,2013-02-06 11:11:00,
2013-02-06 04:22:00,25.0,22.0,29.88,SE,145,3.0,-999.0,89,-99.99,,,-99.99,,2013-02-06 11:22:00,
2013-02-06 04:31:00,26.0,23.0,29.87,SE,145,2.0,-999.0,88,-99.99,,,-99.99,,2013-02-06 11:31:00,
2013-02-06 04:42:00,26.0,23.0,29.87,SE,145,2.0,-999.0,88,-99.99,,,-99.99,,2013-02-06 11:42:00,
2013-02-06 04:52:00,26.0,23.0,29.87,SE,145,2.0,-999.0,88,-99.99,,,-99.99,,2013-02-06 11:52:00,
2013-02-06 05:01:00,25.0,22.0,29.86,SE,145,2.0,-999.0,88,-99.99,,,-99.99,,2013-02-06 12:01:00,
2013-02-06 05:12:00,25.0,22.0,29.86,SE,145,2.0,-999.0,88,-99.99,,,-99.99,,2013-02-06 12:12:00,
2013-02-06 05:22:00,25.0,22.0,29.88,SE,146,1.0,-999.0,88,-99.99,,,-99.99,,2013-02-06 12:22:00,
2013-02-06 05:32:00,26.0,23.0,29.86,SE,146,0.0,-999.0,88,-99.99,,,-99.99,,2013-02-06 12:32:00,
2013-02-06 05:41:00,26.0,23.0,29.86,SE,146,0.0,-999.0,88,-99.99,,,-99.99,,2013-02-06 12:41:00,
2013-02-06 05:52:00,26.0,23.0,29.91,SE,145,2.0,-999.0,88,-99.99,,,-99.99,,2013-02-06 12:52:00,
2013-02-06 06:01:00,25.0,22.0,29.91,SE,145,3.0,-999.0,87,-99.99,,,-99.99,,2013-02-06 13:01:00,
2013-02-06 06:11:00,25.0,22.0,29.91,SE,145,3.0,-999.0,87,-99.99,,,-99.99,,2013-02-06 13:11:00,
2013-02-06 06:21:00,26.0,23.0,29.91,SE,145,2.0,-999.0,88,-99.99,,,-99.99,,2013-02-06 13:21:00,
2013-02-06 06:31:00,25.0,21.0,29.91,SE,145,1.0,-999.0,85,-99.99,,,-99.99,,2013-02-06 13:31:00,
2013-02-06 06:42:00,25.0,21.0,29.91,SE,145,1.0,-999.0,85,-99.99,,,-99.99,,2013-02-06 13:42:00,
2013-02-06 06:52:00,24.0,20.0,29.92,SE,145,1.0,-999.0,86,-99.99,,,-99.99,,2013-02-06 13:52:00,
2013-02-06 07:01:00,26.0,22.0,29.92,SE,145,1.0,-999.0,86,-99.99,,,-99.99,,2013-02-06 14:01:00,
2013-02-06 07:11:00,26.0,22.0,29.92,SE,145,1.0,-999.0,86,-99.99,,,-99.99,,2013-02-06 14:11:00,
2013-02-06 07:21:00,26.0,22.0,29.93,SE,145,0.0,-999.0,86,-99.99,,,-99.99,,2013-02-06 14:21:00,
2013-02-06 07:31:00,26.0,22.0,29.93,SE,145,2.0,-999.0,86,-99.99,,,-99.99,,2013-02-06 14:31:00,
2013-02-06 07:41:00,26.0,22.0,29.93,SE,145,2.0,-999.0,86,-99.99,,,-99.99,,2013-02-06 14:41:00,
2013-02-06 07:52:00,27.0,23.0,29.97,SE,145,1.0,-999.0,84,-99.99,,,-99.99,,2013-02-06 14:52:00,
2013-02-06 08:01:00,27.0,23.0,29.96,SE,145,0.0,-999.0,83,-99.99,,,-99.99,,2013-02-06 15:01:00,
2013-02-06 08:11:00,27.0,23.0,29.96,SE,145,0.0,-999.0,83,-99.99,,,-99.99,,2013-02-06 15:11:00,
2013-02-06 08:21:00,29.0,25.0,29.96,SE,145,0.0,-999.0,83,-99.99,,,-99.99,,2013-02-06 15:21:00,
2013-02-06 08:31:00,31.0,26.0,29.96,SE,145,1.0,-999.0,80,-99.99,,,-99.99,,2013-02-06 15:31:00,
2013-02-06 08:41:00,31.0,26.0,29.96,SE,145,1.0,-999.0,80,-99.99,,,-99.99,,2013-02-06 15:41:00,
2013-02-06 08:52:00,32.0,26.0,29.94,SE,145,1.0,-999.0,77,-99.99,,,-99.99,,2013-02-06 15:52:00,
2013-02-06 09:01:00,34.0,27.0,29.94,SE,145,1.0,-999.0,76,-99.99,,,-99.99,,2013-02-06 16:01:00,
2013-02-06 09:11:00,34.0,27.0,29.94,SE,145,1.0,-999.0,76,-99.99,,,-99.99,,2013-02-06 16:11:00,
2013-02-06 09:21:00,34.0,27.0,29.93,SE,145,0.0,-999.0,75,-99.99,,,-99.99,,2013-02-06 16:21:00,
2013-02-06 09:31:00,34.0,27.0,29.93,SE,145,0.0,-999.0,75,-99.99,,,-99.99,,2013-02-06 16:31:00,
2013-02-06 09:41:00,34.0,27.0,29.93,SE,145,0.0,-999.0,75,-99.99,,,-99.99,,2013-02-06 16:41:00,
2013-02-06 09:52:00,37.0,27.0,29.91,SE,145,0.0,-999.0,68,-99.99,,,-99.99,,2013-02-06 16:52:00,
2013-02-06 10:01:00,39.0,29.0,29.91,SE,145,0.0,-999.0,66,-99.99,,,-99.99,,2013-02-06 17:01:00,
2013-02-06 10:11:00,39.0,29.0,29.91,SE,145,0.0,-999.0,66,-99.99,,,-99.99,,2013-02-06 17:11:00,
2013-02-06 10:21:00,39.0,29.0,29.90,SE,145,1.0,-999.0,66,-99.99,,,-99.99,,2013-02-06 17:21:00,
2013-02-06 10:32:00,38.0,28.0,29.91,SE,145,1.0,-999.0,66,-99.99,,,-99.99,,2013-02-06 17:32:00,
2013-02-06 10:41:00,38.0,28.0,29.91,SE,145,1.0,-999.0,66,-99.99,,,-99.99,,2013-02-06 17:41:00,
2013-02-06 10:52:00,38.0,27.0,29.93,SE,145,0.0,-999.0,63,-99.99,,,-99.99,,2013-02-06 17:52:00,
2013-02-06 11:01:00,40.0,27.0,29.91,SE,145,0.0,-999.0,60,-99.99,,,-99.99,,2013-02-06 18:01:00,
2013-02-06 11:11:00,40.0,27.0,29.91,SE,145,0.0,-999.0,60,-99.99,,,-99.99,,2013-02-06 18:11:00,
2013-02-06 11:22:00,42.0,27.0,29.90,SE,145,0.0,-999.0,56,-99.99,,,-99.99,,2013-02-06 18:22:00,
2013-02-06 11:32:00,45.0,27.0,29.88,SE,145,1.0,-999.0,50,-99.99,,,-99.99,,2013-02-06 18:32:00,
2013-02-06 11:41:00,45.0,27.0,29.88,SE,145,1.0,-999.0,50,-99.99,,,-99.99,,2013-02-06 18:41:00,
2013-02-06 11:52:00,46.0,27.0,29.88,SE,146,0.0,-999.0,48,-99.99,,,-99.99,,2013-02-06 18:52:00,
2013-02-06 12:01:00,48.0,27.0,29.85,SE,145,1.0,-999.0,44,-99.99,,,-99.99,,2013-02-06 19:01:00,
2013-02-06 12:11:00,48.0,27.0,29.85,SE,145,1.0,-999.0,44,-99.99,,,-99.99,,2013-02-06 19:11:00,
2013-02-06 12:21:00,49.0,27.0,29.83,SE,145,1.0,-999.0,42,-99.99,,,-99.99,,2013-02-06 19:21:00,
2013-02-06 12:31:00,49.0,27.0,29.83,SE,145,1.0,-999.0,42,-99.99,,,-99.99,,2013-02-06 19:31:00,
2013-02-06 12:41:00,49.0,27.0,29.83,SE,145,1.0,-999.0,42,-99.99,,,-99.99,,2013-02-06 19:41:00,
2013-02-06 12:52:00,48.0,27.0,29.82,SSE,166,1.0,-999.0,43,-99.99,,,-99.99,,2013-02-06 19:52:00,
2013-02-06 13:01:00,49.0,26.0,29.80,SSE,167,1.0,-999.0,41,-99.99,,,-99.99,,2013-02-06 20:01:00,
2013-02-06 13:11:00,49.0,26.0,29.80,SSE,167,1.0,-999.0,41,-99.99,,,-99.99,,2013-02-06 20:11:00,
2013-02-06 13:21:00,50.0,27.0,29.80,SSE,167,1.0,-999.0,40,-99.99,,,-99.99,,2013-02-06 20:21:00,
2013-02-06 13:31:00,50.0,25.0,29.81,SW,228,1.0,-999.0,37,-99.99,,,-99.99,,2013-02-06 20:31:00,
2013-02-06 13:41:00,50.0,25.0,29.81,SW,228,1.0,-999.0,37,-99.99,,,-99.99,,2013-02-06 20:41:00,
2013-02-06 13:52:00,51.0,24.0,29.80,SW,228,0.0,-999.0,35,-99.99,,,-99.99,,2013-02-06 20:52:00,
2013-02-06 14:01:00,50.0,22.0,29.81,SW,228,1.0,-999.0,33,-99.99,,,-99.99,,2013-02-06 21:01:00,
2013-02-06 14:11:00,50.0,22.0,29.81,SW,228,1.0,-999.0,33,-99.99,,,-99.99,,2013-02-06 21:11:00,
2013-02-06 14:21:00,50.0,25.0,29.81,SW,229,3.0,-999.0,37,-99.99,,,-99.99,,2013-02-06 21:21:00,
2013-02-06 14:31:00,49.0,25.0,29.82,WSW,256,6.0,-999.0,38,-99.99,,,-99.99,,2013-02-06 21:31:00,
2013-02-06 14:41:00,49.0,25.0,29.82,WSW,256,6.0,-999.0,38,-99.99,,,-99.99,,2013-02-06 21:41:00,
2013-02-06 14:52:00,49.0,24.0,29.82,WSW,257,7.0,-999.0,37,-99.99,,,-99.99,,2013-02-06 21:52:00,
2013-02-06 15:01:00,49.0,25.0,29.82,WSW,256,7.0,-999.0,39,-99.99,,,-99.99,,2013-02-06 22:01:00,
2013-02-06 15:11:00,49.0,25.0,29.82,WSW,256,7.0,-999.0,39,-99.99,,,-99.99,,2013-02-06 22:11:00,
2013-02-06 15:21:00,49.0,26.0,29.84,West,275,7.0,-999.0,41,-99.99,,,-99.99,,2013-02-06 22:21:00,
2013-02-06 15:31:00,48.0,24.0,29.84,West,273,9.0,-999.0,39,-99.99,,,-99.99,,2013-02-06 22:31:00,
2013-02-06 15:41:00,48.0,24.0,29.84,West,273,9.0,-999.0,39,-99.99,,,-99.99,,2013-02-06 22:41:00,
2013-02-06 15:52:00,48.0,24.0,29.84,West,267,5.0,-999.0,39,-99.99,,,-99.99,,2013-02-06 22:52:00,
2013-02-06 16:01:00,49.0,25.0,29.84,West,267,3.0,-999.0,39,-99.99,,,-99.99,,2013-02-06 23:01:00,
2013-02-06 16:11:00,49.0,25.0,29.84,West,267,3.0,-999.0,39,-99.99,,,-99.99,,2013-02-06 23:11:00,
2013-02-06 16:21:00,49.0,25.0,29.84,West,267,3.0,-999.0,39,-99.99,,,-99.99,,2013-02-06 23:21:00,
2013-02-06 16:31:00,48.0,24.0,29.84,West,264,4.0,-999.0,38,-99.99,,,-99.99,,2013-02-06 23:31:00,
2013-02-06 16:41:00,48.0,24.0,29.84,West,264,4.0,-999.0,38,-99.99,,,-99.99,,2013-02-06 23:41:00,
2013-02-06 16:52:00,48.0,24.0,29.84,West,264,4.0,-999.0,39,-99.99,,,-99.99,,2013-02-06 23:52:00,
2013-02-06 17:01:00,47.0,25.0,29.84,West,264,4.0,-999.0,41,-99.99,,,-99.99,,2013-02-07 00:01:00,
2013-02-06 17:11:00,47.0,25.0,29.84,West,264,4.0,-999.0,41,-99.99,,,-99.99,,2013-02-07 00:11:00,
2013-02-06 17:21:00,47.0,26.0,29.86,West,264,2.0,-999.0,43,-99.99,,,-99.99,,2013-02-07 00:21:00,
2013-02-06 17:31:00,47.0,25.0,29.85,West,264,1.0,-999.0,42,-99.99,,,-99.99,,2013-02-07 00:31:00,
2013-02-06 17:41:00,47.0,25.0,29.85,West,264,1.0,-999.0,42,-99.99,,,-99.99,,2013-02-07 00:41:00,
2013-02-06 17:52:00,47.0,25.0,29.85,West,264,1.0,-999.0,42,-99.99,,,-99.99,,2013-02-07 00:52:00,
2013-02-06 18:01:00,44.0,25.0,29.89,West,264,0.0,-999.0,47,-99.99,,,-99.99,,2013-02-07 01:01:00,
2013-02-06 18:11:00,44.0,25.0,29.89,West,264,0.0,-999.0,47,-99.99,,,-99.99,,2013-02-07 01:11:00,
2013-02-06 18:21:00,42.0,24.0,29.91,West,264,0.0,-999.0,48,-99.99,,,-99.99,,2013-02-07 01:21:00,
2013-02-06 18:31:00,42.0,25.0,29.91,West,264,1.0,-999.0,50,-99.99,,,-99.99,,2013-02-07 01:31:00,
2013-02-06 18:41:00,42.0,25.0,29.91,West,264,1.0,-999.0,50,-99.99,,,-99.99,,2013-02-07 01:41:00,
2013-02-06 18:52:00,42.0,25.0,29.91,West,264,4.0,-999.0,51,-99.99,,,-99.99,,2013-02-07 01:52:00,
2013-02-06 19:01:00,40.0,24.0,29.93,West,264,0.0,-999.0,53,-99.99,,,-99.99,,2013-02-07 02:01:00,
2013-02-06 19:11:00,40.0,24.0,29.93,West,264,0.0,-999.0,53,-99.99,,,-99.99,,2013-02-07 02:11:00,
2013-02-06 19:21:00,38.0,24.0,29.95,West,264,0.0,-999.0,57,-99.99,,,-99.99,,2013-02-07 02:21:00,
2013-02-06 19:31:00,37.0,24.0,29.94,West,264,0.0,-999.0,59,-99.99,,,-99.99,,2013-02-07 02:31:00,
2013-02-06 19:41:00,37.0,24.0,29.94,West,264,0.0,-999.0,59,-99.99,,,-99.99,,2013-02-07 02:41:00,
2013-02-06 19:51:00,37.0,24.0,29.94,West,264,0.0,-999.0,59,-99.99,,,-99.99,,2013-02-07 02:51:00,
2013-02-06 20:01:00,38.0,25.0,29.93,West,264,1.0,-999.0,58,-99.99,,,-99.99,,2013-02-07 03:01:00,
2013-02-06 20:11:00,38.0,25.0,29.93,West,264,1.0,-999.0,58,-99.99,,,-99.99,,2013-02-07 03:11:00,
2013-02-06 20:21:00,36.0,24.0,29.96,West,264,0.0,-999.0,62,-99.99,,,-99.99,,2013-02-07 03:21:00,
2013-02-06 20:31:00,34.0,24.0,29.94,West,264,0.0,-999.0,66,-99.99,,,-99.99,,2013-02-07 03:31:00,
2013-02-06 20:41:00,34.0,24.0,29.94,West,264,0.0,-999.0,66,-99.99,,,-99.99,,2013-02-07 03:41:00,
2013-02-06 20:52:00,32.0,24.0,29.95,West,264,1.0,-999.0,71,-99.99,,,-99.99,,2013-02-07 03:52:00,
2013-02-06 21:01:00,32.0,24.0,29.96,West,264,0.0,-999.0,72,-99.99,,,-99.99,,2013-02-07 04:01:00,
2013-02-06 21:11:00,32.0,24.0,29.96,West,264,0.0,-999.0,72,-99.99,,,-99.99,,2013-02-07 04:11:00,
2013-02-06 21:22:00,31.0,23.0,29.97,West,264,0.0,-999.0,73,-99.99,,,-99.99,,2013-02-07 04:22:00,
2013-02-06 21:31:00,30.0,23.0,29.94,West,264,2.0,-999.0,76,-99.99,,,-99.99,,2013-02-07 04:31:00,
2013-02-06 21:41:00,30.0,23.0,29.94,West,264,2.0,-999.0,76,-99.99,,,-99.99,,2013-02-07 04:41:00,
2013-02-06 21:53:00,31.0,24.0,29.95,West,264,0.0,-999.0,76,-99.99,,,-99.99,,2013-02-07 04:53:00,
2013-02-06 22:01:00,31.0,24.0,29.95,West,264,0.0,-999.0,76,-99.99,,,-99.99,,2013-02-07 05:01:00,
2013-02-06 22:11:00,31.0,24.0,29.95,West,264,0.0,-999.0,76,-99.99,,,-99.99,,2013-02-07 05:11:00,
2013-02-06 22:21:00,31.0,24.0,29.95,West,264,0.0,-999.0,76,-99.99,,,-99.99,,2013-02-07 05:21:00,
2013-02-06 22:32:00,31.0,24.0,29.95,West,264,0.0,-999.0,76,-99.99,,,-99.99,,2013-02-07 05:32:00,
2013-02-06 22:42:00,31.0,24.0,29.95,West,264,0.0,-999.0,76,-99.99,,,-99.99,,2013-02-07 05:42:00,
2013-02-06 22:52:00,30.0,23.0,29.93,West,264,0.0,-999.0,76,-99.99,,,-99.99,,2013-02-07 05:52:00,
2013-02-06 23:01:00,30.0,23.0,29.93,West,264,0.0,-999.0,76,-99.99,,,-99.99,,2013-02-07 06:01:00,
2013-02-06 23:11:00,30.0,23.0,29.93,West,264,0.0,-999.0,76,-99.99,,,-99.99,,2013-02-07 06:11:00,
2013-02-06 23:22:00,31.0,25.0,29.93,West,264,0.0,-999.0,77,-99.99,,,-99.99,,2013-02-07 06:22:00,
2013-02-06 23:31:00,30.0,24.0,29.90,West,264,0.0,-999.0,77,-99.99,,,-99.99,,2013-02-07 06:31:00,
2013-02-06 23:42:00,30.0,24.0,29.90,West,264,0.0,-999.0,77,-99.99,,,-99.99,,2013-02-07 06:42:00,
2013-02-06 23:52:00,29.0,23.0,29.91,West,264,0.0,-999.0,78,-99.99,,,-99.99,,2013-02-07 06:52:00,